Notices

What's New in latest Release from April 7th, 2021:

- Updated Glossary, including Speed of Maximum Gust, and Total Hourly Precipitation

- Updated national and regional climate services offices contacts and prices information

- Addition of station inventory lists for 1981-2010, 1971-2000, and 1961-1990 Normals.

If you haven't already, please take our survey and provide feedback about our website: https://eccc.sondage-survey.ca/f/LanguageSelection.aspx?s=442ca660-fcf1-47c0-95a9-59707d6fd709

Hourly Data Report for October 08, 2019

CORAL HARBOUR A
NUNAVUT
Current Station Operator: NAVCAN

64°11'36.000" N
83°21'34.000" W
62.20 m
2301002
71915
YZS

Download Data

Hourly Data (October 2019)
Hourly Data Report for October 8, 2019
TIME
LST
Temp Definition
°C
Dew Point Definition
°C
Rel Hum Definition
%
Precip. Amount Definition
mm

Wind Dir Definition
10's deg

Wind Spd Definition
km/h
Visibility Definition
km
Stn Press Definition
kPa
Hmdx Definition


Wind Chill Definition


Weather Definition


00:00 -0.5 -2.7 85   5 10 24.1 99.42   -4 LegendNANA
01:00 -1.4 -2.8 90   2 9 24.1 99.46   -5 Mainly Clear
02:00 -2.2 -3.2 93   36 2 24.1 99.52   -3 LegendNANA
03:00 -2.0 -3.4 90   2 12 24.1 99.59   -6 LegendNANA
04:00 -2.3 -3.5 92   2 10 24.1 99.66   -6 Clear
05:00 -2.5 -3.9 90   1 8 24.1 99.71   -6 LegendNANA
06:00 -3.4 -4.4 93   36 10 24.1 99.75   -7 LegendNANA
07:00 -3.4 -4.4 93   1 13 24.1 99.80   -8 Mainly Clear
08:00 -3.2 -4.2 93   1 10 24.1 99.83   -7 LegendNANA
09:00 -1.4 -3.1 88   7 8 24.1 99.86   -4 LegendNANA
10:00 -0.4 -2.5 85   9 12 24.1 99.91   -4 Mainly Clear
11:00 0.1 -2.1 85   12 17 24.1 99.97     LegendNANA
12:00 0.3 -1.8 85   12 20 24.1 100.02     LegendNANA
13:00 0.0 -2.1 85   12 16 24.1 100.05   -5 Cloudy
14:00 -0.1 -1.7 89   10 17 24.1 100.06   -5 LegendNANA
15:00 0.2 -1.3 89   10 17 24.1 100.06     LegendNANA
16:00 0.2 -0.7 94   12 17 16.1 100.06     Drizzle
17:00 -0.2 -0.7 96   10 18 16.1 100.06   -5 Freezing Drizzle
18:00 0.0 -0.3 97   10 21 19.3 100.07   -5 Freezing Drizzle
19:00 0.3 -0.1 98   11 23 19.3 100.08     Drizzle
20:00 0.3 -0.1 97   10 26 24.1 100.10     Drizzle
21:00 0.6 0.4 98   10 24 24.1 100.07     Drizzle
22:00 1.1 0.9 99   12 25 24.1 100.07     Snow Grains
23:00 1.2 1.0 98   12 26 19.3 100.05     Drizzle

Notes on Data Quality.

Legend

  • E = Estimated
  • M = Missing
  • NA = Not Available*
  • [empty] = Indicates an unobserved value
Date modified: